Location: Grantsboro
(35.1404°N, 76.8424°W)
Time: 21:35:09
(UTC+00:00)

USA 215 - Pass Details

Date: 18 January 2020
Orbit: 1098 x 1110 km, 123.0° (Epoch: 24 February)

Event Time Altitude Azimuth Distance (km) Brightness Sun altitude
Rises 10:58:36 0° 143° (SE) 3,898 7.0 -15.4°
Reaches altitude 10° 11:01:05 10° 146° (SE) 2,944 6.2 -14.9°
Maximum altitude 11:07:33 68° 229° (SW) 1,179 3.3 -13.7°
Enters shadow 11:13:31 13° 311° (NW) 2,758 4.8 -12.5°
